Hourly Weather Roundup
Issued by NWS Central Illinois

Home | Current Version | Previous Version | Text Only | Print | Product List | Glossary On
Versions: 1 2 3 4 5 6 7 8 9 10 11 12 13 14 15 16 17 18 19 20 21 22 23 24 25 26 27 28 29 30 31 32 33 34 35 36 37 38 39 40 41 42 43 44 45 46 47 48 49 50
000
NZUS43 KILX 301910
HWRILX

AREA WEATHER ROUNDUP
NATIONAL WEATHER SERVICE, LINCOLN IL
200 PM CDT SAT APR 30 2016


CITY           SKY/WX    TMP DP  RH WIND       PRES   REMARKS
BLOOMINGTON    LGT RAIN  55  55 100 SE16G23   29.82F FOG
CHAMPAIGN      CLOUDY    56  56 100 SE15      29.82F
DANVILLE       HVY RAIN  54  53  97 E10       29.84F
DECATUR        CLOUDY    59  56  89 SE12      29.80F
EFFINGHAM      CLOUDY    62  62 100 E9G16     29.81F
FLORA          CLOUDY    66  63  89 SE15      29.80F
GALESBURG      RAIN      52  51  97 E14G22    29.77F
JACKSONVILLE   CLOUDY    61  59  93 SE12      29.74F FOG
LACON          LGT RAIN  50  49  95 E14G25    29.82F
LAWRENCEVILLE  CLOUDY    64  62  93 S15       29.86F
LITCHFIELD     CLOUDY    62  59  90 SE9       29.76F
$$


CITY           SKY/WX    TMP DP  RH WIND       PRES   REMARKS
LINCOLN        LGT RAIN  58  57  97 SE12      29.79S
MACOMB         CLOUDY    56  56  99 SE17      29.77F
MATTOON        CLOUDY    59  57  93 SE15G23   29.80F
MT CARMEL AP   NOT AVBL
OLNEY-NOBLE AP CLOUDY    63  63 100 SE13      29.82F
PARIS          CLOUDY    57  56  97 SE14      29.86S
PEORIA         LGT RAIN  55  53  93 E9G20     29.80S FOG
PONTIAC        LGT RAIN  52  51  97 E20       29.87S
RANTOUL        RAIN      56  55  97 E14       29.84F
ROBINSON       CLOUDY    60  59  96 SE12      29.85F
SPRINGFIELD    CLOUDY    61  61 100 SE10      29.76F
TAYLORVILLE    CLOUDY    61  59  94 S10       29.77S
$$

...REGIONAL REPORTS...


CITY           SKY/WX    TMP DP  RH WIND       PRES   REMARKS
CHICAGO O`HARE LGT RAIN  45  42  89 E18G29    29.95F FOG
KANKAKEE       LGT RAIN  49  48  95 E18       29.89S
MOLINE         HVY RAIN  50  46  86 E17G28    29.82R VSB 1
MOUNT STERLING CLOUDY    58  57  97 E9        29.73S FOG
MOUNT VERNON   CLOUDY    70  61  73 S12       29.80F
PITTSFIELD     CLOUDY    61  60  97 SE7       29.73S
QUINCY         CLOUDY    62  59  90 SE10      29.71F
ROCKFORD       LGT RAIN  46  42  86 E15G29    29.95F FOG
$$


CITY           SKY/WX    TMP DP  RH WIND       PRES   REMARKS
BURLINGTON     LGT RAIN  54  54 100 E9        29.73F FOG
CEDAR RAPIDS   RAIN      48  46  93 E21       29.80S FOG
DES MOINES     LGT RAIN  50  46  86 E15       29.77S FOG
KIRKSVILLE     CLOUDY    60  59  96 E3        29.70S
OTTUMWA        CLOUDY    51  50  96 NE13      29.75R FOG
ST LOUIS       CLOUDY    68  61  78 S9        29.74F
$$


CITY           SKY/WX    TMP DP  RH WIND       PRES   REMARKS
TERRE HAUTE    CLOUDY    59  56  89 SE13      29.86F
EVANSVILLE     LGT RAIN  65  62  90 SE3       29.86F
INDIANAPOLIS   RAIN      55  52  89 E10       29.90F FOG
LAFAYETTE      RAIN      51  50  96 E12       29.90R FOG
MADISON        LGT RAIN  48  42  80 E12       30.03R
MILWAUKEE      LGT RAIN  45  38  76 E16       30.05S
$$






USA.gov is the U.S. government's official web portal to all federal, state and local government web resources and services.